Flag for Russia Weather past 2 weeks in Surgut, Russia

Now
59 °F

Clear.


Feels Like: 58 °F
Forecast: 60 / 69 °F
Wind: 6 mph from East

Location: Surgut Airport

Current Time: Jul 2, 2015 at 12:43:37 AM

Latest Report: Jul 2, 2015 at 12:00 AM


Visibility: 4 mi

Pressure: 29.83 "Hg

Humidity: 88%

Dew point: 55 °F

Location of SurgutLocation

Historic Weather in Surgut — Graph

°F

Surgut temperature yesterday

Maximum temperature yesterday: 63 °F (at 2:00 PM)
Minimum temperature yesterday: 57 °F (at 12:00 AM)
Average temperature yesterday: 60 °F

Past Weeks' High & Low Weather Summary

 TemperatureHumidityPressure
High86 °F (Jun 29, 3:00 PM)100% (Jun 24, 2:00 AM)30.33 "Hg (Jun 24, 2:00 AM)
Low48 °F (Jun 21, 1:00 AM)33% (Jun 20, 2:00 PM)29.68 "Hg (Jun 17, 1:00 AM)
Average68 °F63%29.95 "Hg
* Reported Jun 16 11:00 PM — Jul 1 11:30 PM, Surgut, Weather by CustomWeather, © 2015

Note: Actual official high and low records may vary slightly from our data, if they occured in-between our weather recording intervals... More about our weather records

Advertising

Surgut weather history for previous 24 hours

 ConditionsComfort  
Time TempWeatherWind HumidityBarometerVisibility
11:30 PM
Wed, Jul 1
59 °FClear.8 mph88%29.83 "Hg4 mi
11:00 PM59 °FClear.8 mph88%29.83 "Hg4 mi
10:30 PM59 °FClear.3 mph88%29.86 "Hg4 mi
10:00 PM59 °FClear.1 mph94%29.86 "Hg4 mi
9:30 PM61 °FClear.3 mph88%29.86 "Hg4 mi
9:00 PM61 °FBroken clouds.6 mph83%29.86 "Hg4 mi
8:30 PM61 °FBroken clouds.6 mph88%29.86 "Hg4 mi
8:00 PM63 °FPartly sunny.6 mph83%29.86 "Hg4 mi
7:30 PM63 °FPartly sunny.8 mph77%29.86 "Hg4 mi
7:00 PM63 °FPartly sunny.8 mph77%29.86 "Hg4 mi
6:30 PM63 °FPartly sunny.8 mph83%29.86 "Hg4 mi
6:00 PM63 °FPartly sunny.6 mph83%29.86 "Hg4 mi
5:30 PM63 °FPartly sunny.6 mph83%29.86 "Hg4 mi
5:00 PM63 °FPartly sunny.8 mph77%29.86 "Hg4 mi
4:30 PM63 °FPartly sunny.6 mph83%29.86 "Hg4 mi
4:00 PM63 °FPartly sunny.6 mph83%29.86 "Hg4 mi
3:30 PM63 °FPartly sunny.6 mph83%29.86 "Hg4 mi
3:00 PM63 °FOvercast.6 mph83%29.86 "Hg4 mi
2:30 PM63 °FOvercast.8 mph83%29.86 "Hg4 mi
2:00 PM63 °FOvercast.8 mph83%29.83 "Hg4 mi
1:30 PM61 °FOvercast.8 mph88%29.83 "Hg4 mi
1:00 PM61 °FOvercast.8 mph88%29.83 "Hg4 mi
12:30 PM61 °FOvercast.6 mph88%29.83 "Hg4 mi
12:00 PM61 °FOvercast.6 mph83%29.83 "Hg4 mi
11:30 AM59 °FLow clouds.6 mph88%29.83 "Hg4 mi
11:00 AM59 °FLow clouds.6 mph88%29.83 "Hg4 mi
10:30 AM59 °FLow clouds.6 mph88%29.80 "Hg4 mi
10:00 AM59 °FLow clouds.6 mph88%29.80 "Hg4 mi
9:30 AM59 °FLow clouds.6 mph88%29.80 "Hg4 mi
8:30 AM57 °FLow clouds.6 mph94%29.77 "Hg4 mi
8:00 AM57 °FLow clouds.8 mph94%29.77 "Hg4 mi
7:30 AM57 °FLow clouds.6 mph94%29.77 "Hg4 mi
7:00 AM57 °FLow clouds.8 mph94%29.77 "Hg4 mi
6:30 AM57 °FLow clouds.6 mph94%29.77 "Hg4 mi
6:00 AM57 °FLow clouds.8 mph94%29.77 "Hg4 mi
5:30 AM57 °FLow clouds.8 mph94%29.77 "Hg4 mi
5:00 AM57 °FLow clouds.8 mph94%29.77 "Hg4 mi
4:30 AM57 °FLow clouds.6 mph94%29.77 "Hg4 mi
4:00 AM57 °FLow clouds.3 mph94%29.77 "Hg4 mi
3:30 AM57 °FLow clouds.3 mph100%29.77 "Hg4 mi
2:30 AM57 °FLow clouds.8 mph94%29.77 "Hg4 mi
2:00 AM57 °FLow clouds.8 mph94%29.77 "Hg4 mi
1:30 AM57 °FPassing clouds.8 mph94%29.77 "Hg4 mi
1:00 AM57 °FPassing clouds.8 mph94%29.77 "Hg4 mi
12:30 AM57 °FPassing clouds.6 mph94%29.77 "Hg4 mi
12:00 AM57 °FPassing clouds.10 mph94%29.77 "Hg4 mi
Weather by CustomWeather, © 2015

See weather overviewHow to use our weather pages